Location: Lower Kingswood
(51.2667°N, 0.2167°W)
Time: 11:42:30
(UTC+00:00)

Cosmos 1680 Rocket - Pass Details

Date: 26 September 2023
Orbit: 758 x 779 km, 74.1° (Epoch: 28 November)

Event Time Altitude Azimuth Distance (km) Brightness Sun altitude
Rises 02:16:29 0° 337° (NNW) 3,275 7.0 -31.4°
Reaches altitude 10° 02:18:57 10° 343° (NNW) 2,345 6.3 -31.1°
Maximum altitude 02:24:08 49° 58° (ENE) 1,003 4.3 -30.6°
Enters shadow 02:27:01 25° 122° (ESE) 1,552 5.1 -30.2°
